Weather Roundup
Issued by NWS

Home | Current Version | Previous Version | Graphics & Text | Print | Product List | Glossary Off
Versions: 1 2 3 4 5 6 7 8 9 10 11 12 13 14 15 16 17 18 19 20 21 22 23 24 25 26 27 28 29 30 31 32 33 34 35 36 37 38 39 40 41 42 43 44 45 46 47 48 49 50

000
NZUS93 KARX 260210
HRRWXR

CURRENT HOURLY OBSERVATIONS ACROSS
MUCH OF THE UPPER MISSISSIPPI VALLEY
NATIONAL WEATHER SERVICE LA CROSSE WI
800 PM CST SUN JAN 25 2015


...SOUTHEAST MINNESOTA...


CITY           SKY/WX    TMP DP  RH WIND       PRES   REMARKS
ROCHESTER      CLOUDY    23  16  74 NW6       30.04S WCI  16
ROCHESTER/MAYO CLOUDY    24  16  69 CALM      30.05S
WINONA         CLEAR     21  16  79 CALM      30.09S
AUSTIN         CLOUDY    25  19  80 CALM      30.04S
ALBERT LEA     PTCLDY    23  21  93 CALM      30.04S
DODGE CENTER   CLOUDY    23  19  86 CALM      30.03F
PRESTON        CLOUDY    24  18  79 N3        30.05R
OWATONNA       PTCLDY    21  18  86 CALM      30.04S
FARIBAULT      PTCLDY    19  18  93 CALM      30.06S
$$

...ELSEWHERE IN MINNESOTA...


CITY           SKY/WX    TMP DP  RH WIND       PRES   REMARKS
MINNEAPOLIS    MOCLDY    23  15  71 VRB5      30.07R WCI  17
INTNL FALLS    CLOUDY    20  12  71 S5        29.88F WCI  13
DULUTH         CLOUDY    18  13  80 SE3       29.97F
RED WING       PTCLDY    18  12  79 CALM      30.06F
REDWOOD FALLS  CLOUDY    30  24  78 SE3       30.04R
MANKATO        MOCLDY    23  16  74 SE5       30.05R WCI  17
WORTHINGTON    CLOUDY    28  25  86 CALM      30.03R
FAIRMONT       CLOUDY    28  21  74 CALM      30.04S
$$

...SOUTHWEST WISCONSIN...


CITY           SKY/WX    TMP DP  RH WIND       PRES   REMARKS
LA CROSSE      CLOUDY    21  15  78 N5        30.08R WCI  15
PRAIRIE DU CHI CLEAR     19  13  78 CALM      30.08S
BOSCOBEL       CLOUDY    21  14  74 CALM      30.09R
LONE ROCK      CLOUDY    21  12  68 N5        30.08R WCI  15
PLATTEVILLE    FAIR      15  11  83 NW5       30.04R WCI   8
FORT MC COY    CLOUDY    22  11  63 E5        30.09R WCI  16
CAMP DOUGLAS   CLOUDY    18  11  73 NE3       30.07R
VIROQUA        CLOUDY    21  12  67 CALM      30.04R
WIS DELLS      CLOUDY    19  10  70 NE5       30.06R WCI  12
$$

...ELSEWHERE IN WISCONSIN...


CITY           SKY/WX    TMP DP  RH WIND       PRES   REMARKS
MILWAUKEE      PTCLDY    25  13  60 NE12G22   30.02R WCI  14
MADISON        PTCLDY    16  10  77 N8        30.04S WCI   5
GREEN BAY      CLOUDY    16   9  74 CALM      30.08S
EAU CLAIRE     PTCLDY    19  10  68 CALM      30.05F
BLACK RVR FLS  CLOUDY    22  11  61 NE3       30.07S
MEDFORD        CLOUDY    14   7  75 CALM      30.03S
WAUSAU         CLOUDY    17   6  62 CALM      30.04R
WIS RAPIDS     CLOUDY    17   8  67 NW3       30.09R
MARSHFIELD     CLOUDY    18   9  68 NW5       30.05R WCI  11
RICE LAKE      CLOUDY    18  11  74 CALM      30.05F
$$

...NORTHEAST IOWA...


CITY           SKY/WX    TMP DP  RH WIND       PRES   REMARKS
DECORAH        CLOUDY    23  16  74 CALM      30.05R
MASON CITY     CLOUDY    26  21  81 N5        30.06R WCI  20
CHARLES CITY   CLOUDY    27  25  93 N8        30.06R WCI  18
OELWEIN        CLOUDY    25  19  80 N5        30.06R WCI  19
$$

...ELSEWHERE IN IOWA...


CITY           SKY/WX    TMP DP  RH WIND       PRES   REMARKS
DES MOINES     CLOUDY    33  26  75 N8        30.07S WCI  26
IOWA CITY      CLOUDY    25  18  74 N7        30.08R WCI  17
FORT DODGE     CLOUDY    28  21  74 NW5       30.08R WCI  23
$$

...NORTHERN ILLINOIS...


CITY           SKY/WX    TMP DP  RH WIND       PRES   REMARKS
CHICAGO-OHARE  PTCLDY    26  16  65 NE10      29.97R WCI  16
CHICAGO-MIDWAY MOCLDY    28  18  66 NE16      29.96R WCI  16
MOLINE         CLEAR     23  15  71 N6        30.03R WCI  16
ROCKFORD       CLEAR     21  10  62 N12       30.04R WCI   9
PEORIA         MOCLDY    28  19  69 N10G17    29.98R WCI  19
$$

NOTE: "FAIR" INDICATES FEW OR NO CLOUDS BELOW 12,000 FEET WITH NO
SIGNIFICANT WEATHER AND/OR OBSTRUCTIONS TO VISIBILITY. WIND
SPEEDS ARE IN MILES-PER-HOUR.



USA.gov is the U.S. government's official web portal to all federal, state and local government web resources and services.